Regional Weather Roundup
Issued by NWS

Home | Current Version | Previous Version | Text Only | Print | Product List | Glossary On
Versions: 1 2 3 4 5 6 7 8 9 10 11 12 13 14 15 16 17 18 19 20 21 22 23 24 25 26 27 28 29 30 31 32 33 34 35 36 37 38 39 40 41 42 43 44 45 46 47 48 49 50
000
ASUS43 KTOP 310110
RWRKS

STATE WEATHER ROUNDUP
NATIONAL WEATHER SERVICE DODGE CITY KS
 FOR NATIONAL WEATHER SERVICE GOODLAND KS
800 PM CDT THU JUL 30 2015

NOTE:  "FAIR" INDICATES FEW OR NO CLOUDS BELOW 12,000 FEET WITH NO
SIGNIFICANT WEATHER AND/OR OBSTRUCTIONS TO VISIBILITY.

KSZ001>006-013>018-027>032-041>047-310200-
...NORTHWEST KANSAS...

CITY           SKY/WX    TMP DP  RH WIND       PRES   REMARKS
GOODLAND       MOSUNNY   80  56  43 SE7       30.21R
HAYS           CLEAR     84  64  51 E7        30.14S
HILL CITY      CLEAR     86  66  51 S8        30.14F
RUSSELL        CLEAR     83  68  60 SE6       30.13S
$$

KSZ061>065-074>080-084>089-310200-
...SOUTHWEST KANSAS...

CITY           SKY/WX    TMP DP  RH WIND       PRES   REMARKS
DODGE CITY     CLOUDY    78  68  71 S10       30.18S
ELKHART          N/A     74  67  79 S5          N/A
GARDEN CITY    MOCLDY    78  69  73 SW6       30.18S
GREAT BEND     CLEAR     82  66  57 E7        30.14R
LIBERAL        CLOUDY    81  66  61 E6        30.18S
PRATT          PTCLDY    81  64  57 E6        30.17R
$$

KSZ066>073-081>083-090>101-310200-
...SOUTHEAST KANSAS...

CITY           SKY/WX    TMP DP  RH WIND       PRES   REMARKS
CHANUTE        MOCLDY    81  64  56 CALM      30.13S
COFFEYVILLE    PTCLDY    80  71  74 N5        30.11S
HUTCHINSON     CLEAR     81  66  60 SE6       30.15S
MEDICINE LODGE   N/A     80  70  71 SE3       30.11S
NEWTON         CLEAR     79  66  65 SE6       30.17S
PARSONS        MOCLDY    78  76  93 CALM      30.13F
WICHITA INTL   PTCLDY    81  69  67 SE12      30.13S
WICHITA JABRA  PTCLDY    80  70  71 SE5       30.14S
WICHITA MCCONL CLEAR     81  68  64 E8        30.14R
WINFIELD       PTCLDY    81  71  71 E7        30.14S
$$

KSZ007>012-019>026-033>040-048>060-102>105-310200-
...NORTHEAST KANSAS...

CITY           SKY/WX    TMP DP  RH WIND       PRES   REMARKS
CONCORDIA      CLEAR     82  68  62 SE9       30.13S
EMPORIA        PTCLDY    79  64  60 E5        30.14S
LAWRENCE       PTCLDY    81  71  71 CALM      30.13S
MANHATTAN      PTCLDY    84  63  49 SE3       30.12S
OLATHE IND     PTCLDY    81  58  45 E5        30.15S
OLATHE EXE     PTCLDY    81  59  47 CALM      30.14S
SALINA         PTCLDY    85  68  56 S8        30.13S
TOPEKA BILLARD CLEAR     82  67  60 CALM      30.13S
TOPEKA FORBES  CLEAR     83  63  50 SE3       30.14S
$$


USA.gov is the U.S. government's official web portal to all federal, state and local government web resources and services.